Home > Weather > Antananarivo > Past weeks

Flag for Madagascar Past Weather in Antananarivo, Madagascar — Yesterday and Last 2 Weeks

Now
52 °F

Passing clouds.


Feels Like: 52 °F
Forecast: 51 / 68 °F
Wind: No wind

Location: Antananarivo / Ivato

Current Time: Jul 24, 2016 at 5:57:03 AM

Latest Report: Jul 24, 2016 at 5:30 AM


Visibility: N/A

Pressure: 30.27 "Hg (25.93 "Hg at 1287m altitude)

Humidity: 94%

Dew Point: 50 °F

Location of AntananarivoLocation

Past Weather in Antananarivo — Graph

°F

Antananarivo Temperature Yesterday

Maximum temperature yesterday: 70 °F (at 2:00 PM)
Minimum temperature yesterday: 54 °F (at 11:30 PM)
Average temperature yesterday: 61 °F

High & Low Weather Summary for the Past Weeks

 TemperatureHumidityPressure
High73 °F (Jul 20, 12:30 PM)100% (Jul 9, 7:00 AM)30.39 "Hg (Jul 9, 7:00 AM)
Low39 °F (Jul 10, 6:00 AM)31% (Jul 20, 2:30 PM)30.18 "Hg (Jul 19, 2:30 PM)
Average57 °F78%30.29 "Hg
* Reported Jul 9 5:00 AM — Jul 24 5:00 AM, Antananarivo, Weather by CustomWeather, © 2016

Note: Actual official high and low records may vary slightly from our data, if they occured in-between our weather recording intervals... More about our weather records

Advertising

Antananarivo Weather History for the Previous 24 Hours

Scroll right to see more
 ConditionsComfort  
Time TempWeatherWind HumidityBarometerVisibility
5:00 AM
Sun, Jul 24
52 °FPassing clouds.No wind94%30.27 "HgN/A
4:00 AM52 °FPassing clouds.No wind100%30.27 "HgN/A
3:00 AM50 °FPassing clouds.No wind100%30.27 "HgN/A
2:30 AM50 °FPassing clouds.No wind94%30.27 "HgN/A
2:00 AM50 °FPassing clouds.No wind94%30.27 "HgN/A
1:30 AM54 °FPassing clouds.No wind88%30.30 "HgN/A
1:00 AM54 °FPassing clouds.No wind88%30.30 "HgN/A
12:30 AM54 °FPassing clouds.No wind88%30.30 "HgN/A
12:00 AM54 °FPassing clouds.No wind88%30.33 "HgN/A
11:30 PM
Sat, Jul 23
54 °FPassing clouds.No wind94%30.33 "HgN/A
11:00 PM55 °FPassing clouds.No wind88%30.33 "HgN/A
10:30 PM55 °FPassing clouds.No wind88%30.33 "HgN/A
10:00 PM55 °FPassing clouds.No wind88%30.33 "HgN/A
9:30 PM55 °FPassing clouds.No wind88%30.33 "HgN/A
9:00 PM57 °FPassing clouds.6 mph82%30.30 "HgN/A
8:30 PM57 °FPassing clouds.1 mph88%30.30 "HgN/A
8:00 PM57 °FPassing clouds.7 mph88%30.30 "HgN/A
7:30 PM57 °FPassing clouds.10 mph88%30.30 "HgN/A
7:00 PM59 °FPassing clouds.12 mph82%30.27 "HgN/A
6:30 PM61 °FPassing clouds.7 mph77%30.27 "HgN/A
6:00 PM63 °FPassing clouds.8 mph73%30.27 "HgN/A
5:30 PM63 °FScattered clouds.8 mph68%30.27 "HgN/A
5:00 PM64 °FScattered clouds.14 mph64%30.24 "HgN/A
4:30 PM66 °FPartly sunny.14 mph64%30.24 "HgN/A
4:00 PM66 °FScattered clouds.14 mph60%30.24 "HgN/A
3:30 PM68 °FScattered clouds.14 mph60%30.24 "HgN/A
3:00 PM66 °FPartly sunny.16 mph60%30.24 "HgN/A
2:30 PM68 °FPartly sunny.14 mph60%30.24 "HgN/A
2:00 PM70 °FPartly sunny.13 mph60%30.24 "HgN/A
1:30 PM66 °FPartly sunny.12 mph64%30.27 "HgN/A
1:00 PM68 °FPartly sunny.14 mph69%30.27 "HgN/A
12:30 PM68 °FPartly sunny.15 mph64%30.27 "HgN/A
12:00 PM66 °FPartly sunny.15 mph68%30.30 "HgN/A
11:30 AM66 °FPartly sunny.14 mph64%30.30 "HgN/A
11:00 AM68 °FPartly sunny.10 mph60%30.30 "HgN/A
10:30 AM66 °FPassing clouds.9 mph60%30.33 "HgN/A
10:00 AM66 °FPassing clouds.10 mph60%30.33 "HgN/A
9:30 AM64 °FPassing clouds.9 mph60%30.33 "HgN/A
9:00 AM64 °FScattered clouds.7 mph64%30.33 "HgN/A
8:30 AM63 °FScattered clouds.8 mph73%30.33 "HgN/A
8:00 AM59 °FScattered clouds.9 mph77%30.33 "HgN/A
7:30 AM59 °FScattered clouds.8 mph82%30.33 "HgN/A
7:00 AM57 °FPassing clouds.7 mph88%30.30 "HgN/A
6:30 AM57 °FScattered clouds.5 mph94%30.30 "HgN/A
6:00 AM57 °FPassing clouds.No wind94%30.30 "HgN/A
5:30 AM59 °FPassing clouds.No wind88%30.27 "HgN/A
5:00 AM59 °FPassing clouds.3 mph88%30.27 "HgN/A
Weather by CustomWeather, © 2016

See weather overviewHow to use our weather pages